[[{"header":{"parameterUnit":"m.s-1","parameterCategory":1,"la1":30.2991,"la2":30.254,"lo1":-89.0895,"lo2":-89.0444,"dy":0.0017,"dx":0.0017,"nx":28,"ny":28,"refTime":"2024-11-27T03:00:00:Z","depth":0,"parameterNumber":2,"parameterNumberName":"U-component_of_WINDS"},"data":[0,0,0,0,0,0,0,0,0,0,0,0,0,0,0,0,0,0,0,0,0,0,0,0,0,0,0,0,0,0,0,0,0,0,0,0,0,0,0,0,0,0,0,0,0,0,0,0,0,0,0,0,0,0,0,0,0,0,3.9853,3.9855,0,4.0014,4.0016,4.0018,4.0006,4.0004,4.0001,3.9999,4.0167,4.0174,4.018,0,0,0,0,0,0,0,0,0,0,0,0,0,3.9538,3.9544,3.9853,3.9855,3.9857,4.0014,4.0016,4.0018,4.0007,4.0004,4.0001,3.9998,4.0165,4.0173,4.0181,0,0,0,0,0,0,0,0,0,0,0,0,0,3.9684,3.9546,3.9853,3.987,3.9873,4.0013,4.0016,4.0019,4.0007,4.0004,4.0,3.9997,4.0162,4.0172,4.0182,4.0316,0,0,4.0213,4.0217,0,0,0,0,0,0,0,0,3.9676,3.9696,3.9865,3.9869,3.9873,3.9986,3.9967,4.0119,4.0008,3.9957,3.9999,3.9995,4.011,4.0124,4.0163,4.0324,4.0331,4.0214,4.022,4.0224,4.0227,0,0,0,0,0,0,0,3.9666,3.9689,3.9917,3.9868,3.9873,3.9871,3.9888,3.9995,4.0052,3.9961,3.996,3.9979,4.0112,4.0153,4.0166,4.0334,4.0213,4.0222,4.0229,4.0233,4.0614,4.0618,0,0,0,0,0,0,3.9651,3.9681,3.9912,3.9922,3.9764,3.9879,3.9898,3.9954,4.005,4.0062,3.9982,3.9978,4.0137,4.0155,4.0172,4.0335,4.0224,4.0234,4.0239,4.061,4.0615,4.0619,0,0,0,0,0,0,3.9645,3.9672,3.9905,3.9801,3.9831,3.9888,3.9951,3.9959,4.0,4.0067,4.0077,4.0014,4.0135,4.0158,4.028,4.0341,4.0238,4.0247,4.0605,4.0611,4.0617,4.0663,0,0,0,0,0,0,3.9636,3.967,3.9721,3.9802,3.9836,4.001,3.9955,3.9964,4.0017,4.0013,4.0099,4.011,4.0134,4.0265,4.029,4.0353,4.0255,4.06,4.0608,4.0615,4.0656,4.067,4.0682,0,0,0,0,0,3.9625,3.9728,3.9723,3.9751,3.9901,4.0013,4.0033,4.0058,4.0022,4.0074,4.0117,4.0107,4.0331,4.0278,4.0306,4.0373,4.0596,4.0606,4.0615,4.0651,4.0667,4.0681,0,0,0,0,0,0,3.9653,3.9739,3.9735,3.9867,3.9933,4.0011,4.0077,4.0075,4.0152,4.0146,4.0174,4.0194,4.0317,4.0357,4.0297,4.0508,4.0459,4.0474,4.0477,4.0493,4.0505,4.0493,4.0263,0,0,0,0,0,3.9674,3.9758,3.9829,3.9939,3.9972,4.0019,4.0069,4.0083,4.0152,4.018,4.0232,4.0301,4.0386,4.0442,4.0524,4.0662,4.0681,4.0722,4.0735,4.0745,4.0757,4.0833,4.0852,4.0649,4.0649,4.0649,0,0,3.972,3.9777,3.9828,3.9946,3.9998,4.0085,4.0043,4.0136,4.02,4.0195,4.0312,4.0353,4.0432,4.0562,4.0622,4.06,4.0818,4.0757,4.0764,4.0771,4.0844,4.0864,4.0881,4.0656,4.0655,4.0654,0,0,3.9847,3.9899,3.9996,4.0049,4.0129,4.0159,4.0183,4.0262,4.0288,4.0407,4.0404,4.0482,4.0629,4.0685,4.0733,4.0881,4.0875,4.0908,4.0973,4.1047,4.1063,4.1077,4.1129,4.1148,4.092,4.092,4.092,0,3.9893,4.0022,4.0046,4.014,4.0192,4.019,4.0289,4.034,4.0443,4.048,4.0453,4.0637,4.069,4.0833,4.0869,4.0908,4.0936,4.0897,4.1058,4.1073,4.1087,4.1137,4.1157,4.0924,4.0923,4.0923,4.0923,0,4.0076,4.0165,4.0234,4.0333,4.0393,4.0489,4.0528,4.0586,4.0595,4.0629,4.075,4.0813,4.0908,4.0944,4.0954,4.1089,4.1072,4.1052,4.1003,4.1109,4.1157,4.1176,4.0928,4.0927,4.0926,4.0925,0,0,4.0224,4.0334,4.0359,4.0404,4.0492,4.0562,4.0658,4.075,4.0799,4.0871,4.0952,4.1077,4.1058,4.1112,4.1129,4.1193,4.1306,4.1165,4.1167,4.1188,4.1459,4.1473,4.1495,4.1303,4.1307,4.131,4.1452,0,4.0359,4.0528,4.0553,4.0703,4.0786,4.0786,4.087,4.0933,4.0968,4.1044,4.1082,4.117,4.1139,4.1172,4.1236,4.1279,4.1361,4.1269,4.138,4.1383,4.1359,4.152,4.1535,4.1666,4.1471,4.1474,4.1477,0,4.0539,4.0614,4.0771,4.0848,4.0884,4.0959,4.1045,4.1118,4.119,4.1211,4.1271,4.128,4.138,4.1328,4.1467,4.1404,4.1451,4.1479,4.1485,4.1496,4.1435,4.1534,4.1709,4.1728,4.1506,4.1504,4.1502,0,4.063,4.0771,4.0883,4.0921,4.1014,4.1066,4.1107,4.1176,4.123,4.1306,4.1341,4.1429,4.1476,4.1544,4.1576,4.1535,4.1713,4.1664,4.1733,4.1733,4.177,4.1767,4.1954,4.1802,4.1802,4.1801,4.1801,0,4.0777,4.0873,4.0925,4.0994,4.1102,4.1131,4.1237,4.1277,4.1338,4.1415,4.1422,4.1494,4.1533,4.1611,4.1637,4.1748,4.177,4.179,4.1795,4.1789,4.1786,4.1819,4.181,4.1806,4.1805,4.1804,4.1803,0,4.0897,4.0935,4.1057,4.1135,4.1157,4.1233,4.13,4.1367,4.1401,4.1499,4.1524,4.1578,4.1671,4.171,4.1824,4.1842,4.1969,4.1968,4.1944,4.1945,4.2012,4.2005,4.2226,4.2256,4.2085,4.2087,4.2088,0,4.0987,4.1061,4.1147,4.1198,4.1241,4.1325,4.1379,4.1411,4.1467,4.1556,4.1613,4.1705,4.1781,4.193,4.198,4.2067,4.2068,4.214,4.2081,4.2072,4.2068,4.2063,4.207,4.215,4.2151,4.2153,4.2154,0,4.1144,4.116,4.1238,4.1324,4.1388,4.1457,4.1525,4.1567,4.1609,4.1673,4.1767,4.1826,4.1942,4.2034,4.2125,4.2168,4.2169,4.2172,4.2193,4.2186,4.2168,4.2178,4.1972,4.2167,4.2165,4.2164,4.2164,4.2163,4.1252,4.1317,4.1387,4.1475,4.1528,4.1591,4.1658,4.1701,4.178,4.1876,4.1891,4.1992,4.2063,4.2184,4.2231,4.2311,4.2293,4.2323,4.2331,4.2337,4.2341,4.2157,4.2328,4.2328,4.2328,4.2327,4.2327,0,4.1408,4.1453,4.1533,4.1627,4.1696,4.1689,4.1764,4.1822,4.191,4.1976,4.205,4.2159,4.2249,4.2306,4.2396,4.2449,4.2452,4.2472,4.2468,4.2478,4.2353,4.2325,4.2468,4.2468,4.2468,4.2468,4.2468,4.2468,4.1497,4.1608,4.1632,4.1769,4.1814,4.1912,4.1955,4.2014,4.2066,4.2187,4.2261,4.2298,4.2361,4.2455,4.2537,4.2552,4.2585,4.2606,4.2619,4.2501,4.2487,4.2472,4.2447,4.2613,4.2613,4.2738,4.2739,4.274]},{"header":{"parameterUnit":"m.s-1","parameterCategory":1,"la1":30.2991,"la2":30.254,"lo1":-89.0895,"lo2":-89.0444,"dy":0.0017,"dx":0.0017,"nx":28,"ny":28,"refTime":"2024-11-27T03:00:00:Z","depth":0,"parameterNumber":3,"parameterNumberName":"V-component_of_WINDS"},"data":[0,0,0,0,0,0,0,0,0,0,0,0,0,0,0,0,0,0,0,0,0,0,0,0,0,0,0,0,0,0,0,0,0,0,0,0,0,0,0,0,0,0,0,0,0,0,0,0,0,0,0,0,0,0,0,0,0,0,3.4052,3.4052,0,3.4068,3.4068,3.4068,3.4045,3.4044,3.4043,3.4042,3.4057,3.4058,3.4059,0,0,0,0,0,0,0,0,0,0,0,0,0,3.3999,3.4,3.4052,3.4052,3.4052,3.4068,3.4068,3.4068,3.4045,3.4044,3.4043,3.4042,3.4056,3.4058,3.4059,0,0,0,0,0,0,0,0,0,0,0,0,0,3.4019,3.4,3.4052,3.4042,3.4042,3.4068,3.4068,3.4068,3.4045,3.4044,3.4043,3.4041,3.4056,3.4058,3.4059,3.4094,0,0,3.4064,3.4065,0,0,0,0,0,0,0,0,3.4018,3.4021,3.4044,3.4043,3.4042,3.4053,3.4055,3.4077,3.4045,3.4044,3.4042,3.4041,3.4056,3.4058,3.4064,3.4095,3.4096,3.4065,3.4066,3.4066,3.4067,0,0,0,0,0,0,0,3.4016,3.402,3.4058,3.4044,3.4043,3.4037,3.4038,3.4059,3.4057,3.4044,3.4042,3.4045,3.4056,3.4062,3.4064,3.4096,3.4065,3.4066,3.4067,3.4068,3.4157,3.4158,0,0,0,0,0,0,3.4016,3.4019,3.4057,3.4058,3.4027,3.4039,3.404,3.4051,3.4056,3.4056,3.4046,3.4043,3.406,3.4062,3.4064,3.4106,3.4066,3.4068,3.4069,3.4155,3.4157,3.4159,0,0,0,0,0,0,3.4015,3.402,3.4057,3.4038,3.4043,3.4041,3.4053,3.4052,3.4058,3.4058,3.4057,3.4052,3.4059,3.4062,3.4087,3.4106,3.4069,3.407,3.4154,3.4156,3.4158,3.4189,0,0,0,0,0,0,3.4014,3.402,3.4034,3.4039,3.4044,3.408,3.4054,3.4053,3.4061,3.4059,3.4064,3.4064,3.4058,3.4085,3.4089,3.4107,3.4072,3.4152,3.4155,3.4157,3.4186,3.4192,3.4196,0,0,0,0,0,3.4012,3.4041,3.4035,3.4039,3.4061,3.4081,3.4084,3.4078,3.4063,3.4076,3.4076,3.4063,3.4103,3.4088,3.4092,3.4111,3.4151,3.4154,3.4157,3.4184,3.4191,3.4196,0,0,0,0,0,0,3.4037,3.4042,3.4034,3.4066,3.4074,3.4077,3.4094,3.4085,3.4096,3.4093,3.4084,3.4085,3.4113,3.4114,3.4097,3.4146,3.4125,3.4129,3.4143,3.415,3.4155,3.4154,3.4073,0,0,0,0,0,3.4047,3.4064,3.4066,3.4094,3.4099,3.4096,3.4105,3.4099,3.4106,3.4109,3.4111,3.4117,3.4131,3.4141,3.4153,3.4186,3.4187,3.4202,3.4207,3.4211,3.4215,3.4232,3.4239,3.4168,3.4168,3.4168,0,0,3.4066,3.4071,3.4082,3.41,3.4105,3.4122,3.4099,3.4118,3.413,3.4112,3.4136,3.4137,3.4144,3.4174,3.4187,3.4176,3.4234,3.4215,3.4218,3.422,3.4236,3.4243,3.4248,3.417,3.417,3.417,0,0,3.411,3.4116,3.414,3.4145,3.4154,3.4152,3.4158,3.4163,3.4164,3.4188,3.4174,3.4189,3.4213,3.4219,3.4225,3.4271,3.426,3.4275,3.4302,3.4319,3.4325,3.433,3.4346,3.4352,3.4279,3.4279,3.4279,0,3.4133,3.4159,3.4153,3.4173,3.4181,3.4166,3.419,3.4195,3.4207,3.4213,3.4201,3.4231,3.4235,3.4265,3.4277,3.4282,3.4288,3.4275,3.4325,3.4329,3.4334,3.4349,3.4356,3.4281,3.4281,3.4281,3.428,0,3.4187,3.4205,3.4223,3.4236,3.4246,3.4268,3.4264,3.4275,3.4268,3.4268,3.4292,3.4296,3.431,3.4316,3.431,3.4346,3.4339,3.4326,3.4305,3.4343,3.4357,3.4363,3.4284,3.4283,3.4282,3.4282,0,0,3.4247,3.4257,3.4263,3.4269,3.4277,3.4291,3.4312,3.4326,3.4335,3.4344,3.4361,3.4382,3.437,3.4377,3.4371,3.4386,3.4422,3.4371,3.4371,3.438,3.4462,3.4472,3.4479,3.4415,3.4416,3.4417,3.4461,0,3.4291,3.4328,3.4323,3.4359,3.4375,3.4361,3.4379,3.4386,3.4386,3.4399,3.4399,3.4414,3.4397,3.4401,3.4415,3.4415,3.4439,3.4412,3.443,3.4431,3.4429,3.4486,3.4496,3.4538,3.4467,3.4468,3.4469,0,3.4347,3.4359,3.4397,3.4403,3.4409,3.4426,3.4438,3.4451,3.4458,3.4457,3.4465,3.4457,3.4477,3.4456,3.4483,3.4465,3.4472,3.4473,3.4475,3.4476,3.4452,3.4489,3.4551,3.4557,3.4477,3.4477,3.4476,0,3.4388,3.4413,3.4438,3.4443,3.4451,3.4463,3.4467,3.4473,3.4481,3.4492,3.4497,3.451,3.4516,3.4526,3.4521,3.4506,3.4549,3.4527,3.4548,3.4549,3.4558,3.4557,3.4622,3.4563,3.4563,3.4563,3.4563,0,3.4437,3.446,3.4456,3.4472,3.4498,3.4491,3.4516,3.4518,3.4524,3.4539,3.4527,3.4542,3.4534,3.4548,3.4544,3.4567,3.457,3.457,3.4568,3.4571,3.4571,3.4575,3.4572,3.4565,3.4564,3.4564,3.4564,0,3.4486,3.4484,3.4511,3.4517,3.4518,3.4537,3.4541,3.4556,3.4555,3.4574,3.4578,3.4577,3.4592,3.4588,3.4605,3.4602,3.4632,3.4627,3.463,3.4628,3.4649,3.4647,3.4719,3.4728,3.4663,3.4664,3.4664,0,3.4518,3.4536,3.4543,3.4553,3.4558,3.4574,3.4583,3.4577,3.4586,3.4596,3.4609,3.4624,3.4636,3.4661,3.4661,3.4674,3.4669,3.4693,3.467,3.4672,3.4669,3.4668,3.4669,3.4697,3.4698,3.4699,3.4699,0,3.4574,3.4572,3.4586,3.46,3.4612,3.4622,3.4631,3.4639,3.4634,3.4646,3.4662,3.4671,3.4688,3.4703,3.4715,3.4718,3.4707,3.4706,3.4712,3.4714,3.4715,3.4715,3.4642,3.4704,3.4704,3.4704,3.4703,3.4703,3.4615,3.463,3.4638,3.4654,3.466,3.4669,3.4683,3.4684,3.4698,3.4712,3.4708,3.4726,3.4733,3.4748,3.4752,3.4766,3.4757,3.4765,3.4767,3.4769,3.4771,3.4713,3.4768,3.4768,3.4768,3.4768,3.4768,0,3.4671,3.4675,3.469,3.4703,3.4716,3.4706,3.4716,3.4726,3.4743,3.4751,3.4762,3.4781,3.4795,3.4796,3.4809,3.482,3.4816,3.4824,3.4823,3.4824,3.4779,3.4773,3.4827,3.4827,3.4827,3.4827,3.4827,3.4827,3.4701,3.4726,3.4726,3.4754,3.4758,3.4776,3.4783,3.4791,3.4796,3.4818,3.483,3.4831,3.4836,3.4849,3.4862,3.4862,3.4867,3.4877,3.4875,3.4833,3.4827,3.4821,3.4815,3.4878,3.4878,3.4918,3.4919,3.4919]}]]